Flag for Germany Weather past 2 weeks in Hannover, Lower Saxony, Germany

Now
63 °F

Fog.


Feels Like: 63 °F
Forecast: 66 / 80 °F
Wind: 2 mph from North

Location: Hannover

Current Time: Jul 28, 2014 at 8:26:40 AM

Latest Report: Jul 28, 2014 at 7:50 AM


Visibility: 0 mi

Pressure: 29.95 "Hg

Humidity: 94%

Dew point: 61 °F

Location of HannoverLocation

Historic Weather in Hannover — Graph

°F

Hannover temperature yesterday

Maximum temperature yesterday: 79 °F (at 1:20 PM)
Minimum temperature yesterday: 59 °F (at 4:50 AM)
Average temperature yesterday: 70 °F

Past Weeks' High & Low Weather Summary

 TemperatureHumidityPressure
High91 °F (Jul 19, 2:50 PM)100% (Jul 16, 4:20 AM)30.18 "Hg (Jul 16, 4:20 AM)
Low54 °F (Jul 17, 4:20 AM)26% (Jul 19, 2:20 PM)29.68 "Hg (Jul 13, 6:20 PM)
Average70 °F73%29.98 "Hg
* Reported Jul 13 7:20 AM — Jul 28 7:20 AM, Hannover, Weather by CustomWeather, © 2014

Note: Actual official high and low records may vary slightly from our data, if they occured in-between our weather recording intervals... More about our weather records

Advertising

Hannover weather history for previous 24 hours

 ConditionsComfort  
Time TempWeatherWind HumidityBarometerVisibility
7:20 AM
Jul 28
63 °FFog.5 mph94%29.95 "Hg0 mi
6:50 AM63 °FFog.3 mph94%29.95 "Hg0 mi
6:20 AM61 °FFog.No wind100%29.95 "Hg0 mi
5:50 AM59 °FFog.2 mph100%29.95 "Hg3 mi
5:20 AM59 °FLight fog.5 mph100%29.95 "Hg4 mi
4:20 AM59 °FFog.2 mph94%29.95 "Hg4 mi
3:50 AM61 °FFog.1 mph94%29.95 "HgN/A
3:20 AM61 °FFog.No wind94%29.95 "HgN/A
2:50 AM61 °FFog.1 mph94%29.95 "HgN/A
2:20 AM61 °FClear.2 mph94%29.95 "Hg10 mi
1:50 AM61 °FClear.5 mph100%29.95 "Hg10 mi
1:20 AM61 °FClear.5 mph94%29.98 "Hg10 mi
12:50 AM63 °FClear.5 mph88%29.98 "Hg10 mi
12:20 AM63 °FClear.2 mph94%29.98 "Hg10 mi
11:50 PM
Jul 27
64 °FClear.3 mph88%29.98 "Hg10 mi
11:20 PM64 °FClear.3 mph88%29.98 "Hg10 mi
10:50 PM64 °FClear.3 mph88%29.98 "Hg10 mi
10:20 PM68 °FSunny.2 mph78%29.98 "Hg10 mi
9:50 PM68 °FSunny.5 mph78%29.98 "Hg10 mi
9:20 PM70 °FSunny.6 mph73%29.98 "Hg10 mi
8:50 PM70 °FSunny.6 mph73%29.95 "Hg10 mi
8:20 PM72 °FScattered clouds.10 mph73%29.95 "HgN/A
7:50 PM75 °FScattered clouds.9 mph65%29.95 "HgN/A
7:20 PM77 °FScattered clouds.9 mph57%29.95 "HgN/A
6:50 PM77 °FScattered clouds.10 mph61%29.92 "HgN/A
6:20 PM79 °FScattered clouds.13 mph58%29.92 "HgN/A
5:50 PM79 °FScattered clouds.9 mph58%29.92 "HgN/A
5:20 PM79 °FScattered clouds.10 mph54%29.92 "HgN/A
4:50 PM79 °FScattered clouds.10 mph58%29.95 "HgN/A
4:20 PM77 °FScattered clouds.10 mph61%29.95 "HgN/A
3:50 PM79 °FScattered clouds.13 mph61%29.95 "HgN/A
3:20 PM79 °FScattered clouds.15 mph61%29.95 "HgN/A
2:50 PM79 °FScattered clouds.8 mph58%29.95 "HgN/A
2:20 PM79 °FScattered clouds.10 mph58%29.95 "HgN/A
1:50 PM79 °FScattered clouds.8 mph61%29.95 "HgN/A
1:20 PM79 °FScattered clouds.9 mph58%29.95 "HgN/A
12:50 PM77 °FScattered clouds.7 mph69%29.95 "HgN/A
12:20 PM77 °FScattered clouds.8 mph69%29.95 "HgN/A
11:50 AM75 °FScattered clouds.7 mph69%29.95 "HgN/A
11:20 AM77 °FPassing clouds.7 mph65%29.95 "HgN/A
10:50 AM75 °FPassing clouds.8 mph65%29.95 "HgN/A
10:20 AM73 °FSunny.9 mph74%29.95 "Hg10 mi
9:50 AM73 °FPassing clouds.6 mph74%29.95 "HgN/A
9:20 AM72 °FPassing clouds.5 mph78%29.98 "HgN/A
8:50 AM70 °FPassing clouds.5 mph83%29.95 "HgN/A
8:20 AM68 °FSunny.2 mph88%29.95 "Hg10 mi
Weather by CustomWeather, © 2014

See weather overviewHow to use our weather pages